sat.trackr.live / text

‹ back to catalog

STARLINK-11742 [DTC]

NORAD 64377 · 2025-127H

PAYLOAD ACTIVE UNKNOWN

§ Identity

Operator
Country
US
Launch date
2025-06-13
Launch site
AFETR
Launch vehicle
Mass (kg)
RCS (m²)

Purposes: comms

External: N2YO · Heavens-Above · Gunter

§ Orbital elements

Epoch: 2026-05-23T22:21:36.250848Z

Period
91.67 min
Inclination
43.0000°
Eccentricity
0.0002333
Mean motion
15.70863265 rev/d
Perigee alt
354.9 km
Apogee alt
358.0 km
Semi-major
6,734.6 km
B*
1.1196e-3
RAAN
351.2090°
Arg perigee
277.0246°
Mean anomaly
83.0356°
Rev number
5,533

§ Raw data

STARLINK-11742 [DTC]1 64377U 25127H   26143.93166957  .00145906  00000+0  11196-2 0  99902 64377  43.0000 351.2090 0002333 277.0246  83.0356 15.70863265 55339

JSON: /api/v1/satellites/64377 · /tle

For live sub-satellite position, see the globe view (requires WebGL).

§ Visibility from observer

Set your observer location to see the next 7 days of passes ≥ 10°. The values pass through the URL so the page stays shareable.

No JS? Fill the form by hand. The geolocation button needs JavaScript.